Showing default

NUVIEW ALPHA, 62455

Orbit data source: Space-Track

NUVIEW ALPHA, 62455 is a UK payload satellite in GEO that was launched on Sun, 29 Dec 2024 UTC via an FALCON 9 launch vehicle from the Air Force Eastern Test Range (AFETR). Payload-class satellites include a variety of spacecraft equipped with specific instruments for various scientific and technological missions. These include communications satellites like Starlink; space stations such as the ISS; scientific satellites like the Hubble; Earth observation satellites from companies like Planet Labs, Umbra, and HawkEye 360; GPS; miniature CubeSats for education and research; and military/defense satellites.

Loading next visibility...
Identifier
62455, 2024-252B
Orbit
GEO
Country
Flag of UKUK
Related business
Manufacturer
Astranis
Mission
Operational Commercial Communications
Bus & Motor
MICROGEO, EP
Mass
400 kg wet, 400 kg dry
Launch date (UTC)
2024-12-29 (1 year ago)
Launch vehicle
FALCON 9
Launch site
Air Force Eastern Test Range (AFETR)
Object type
Payload
Rocket body
Debris
Shape & HBR
Box + 22 Pan, 5.0 m
Radar Cross Section
41.175 m²

Expand to show TLE details & history
Last TLE update: 1 day ago

TLE from 1 day ago
0 NUVIEW ALPHA
1 62455U 24252B   26149.48852788 -.00000204  00000-0  00000-0 0  9996
2 62455   0.0580  32.0172 0001060  11.8528 295.9180  1.00271539  3638
Epoch: 2026-05-29T11:43Z
TLE epoch observation values (Epoch: 2026-05-29T11:43:28.808Z)
Latitude
-0.03154°
Longitude
-83.1158°
Altitude
35,784.212 km
Speed
3.075 km/s
True Right ascension
22h 39m 05s
True Declination
0° 01' 53"
Sunlit
Object was in daylight at epoch
Visualization orbit readout
Latitude
Unknown
Longitude
Unknown
Altitude
Unknown
Speed
Unknown
Apparent Right ascension
Unknown
Apparent Declination
Unknown
Sunlit
N/A
Visualization observer readout
Local Sidereal Time
01:37:49
Azimuth
Unknown
Elevation
Unknown
Doppler factor
Unknown
Orbital elements
Apogee altitude
35,792.204 km
Perigee altitude
35,783.265 km
Semi-major axis
42,165.871 km
Eccentricity
0.00011
Inclination
0.058°
RAAN
32.0172°
Arg. of periapsis
11.8528°
True anomaly
295.90707°
Mean anomaly
295.918°
Eccentric anomaly
295.91254°
Mean motion
0.25067 °/min
Orbital period
1,436.15 mins
BSTAR
0
Loading maneuver chart data...
Computing Atmospheric mass density...
Loading historical data...
Loading historical data...
Loading historical data...
Loading historical data...
Loading historical data...
Loading historical data...
Loading historical data...
Other satellites on launch #252 in the year 2024 (2024-12-29 UTC)

Documentation

Showing up to 5 results
|